Weather History for Fort Meade, MD

Change the Weather History Date:

Friday, June 6, 2014

  Actual Average (KBWI) Record (KBWI)
Temperature  
Mean Temperature 64 °F 70 °F  
Max Temperature 77 °F 80 °F 99 °F (1925)
Min Temperature 51 °F 59 °F 46 °F (1997)
Degree Days  
Heating Degree Days 1 1  
Month to date heating degree days 8  
Since 1 June heating degree days 8  
Since 1 July heating degree days 4757  
Cooling Degree Days 0 6  
Month to date cooling degree days 31  
Year to date cooling degree days 115  
Since 1 June cooling degree days 31  
Growing Degree Days 14 (Base 50)    
Moisture  
Dew Point 52 °F    
Average Humidity 70    
Maximum Humidity 94    
Minimum Humidity 41    
Precipitation  
Precipitation 0.00 in 0.13 in 1.43 in (2005)
Month to date precipitation 0.75  
Year to date precipitation 17.78  
Snow  
Snow 0.00 in 0.00 in T in (2002)
Month to date snowfall 0.0  
Since 1 July snowfall 20.1  
Snow Depth -    
Sea Level Pressure  
Sea Level Pressure 29.95 in    
Wind  
Wind Speed 2 mph (NW)    
Max Wind Speed 10 mph    
Max Gust Speed -    
Visibility 9 miles    
Events      
T = Trace of Precipitation, MM = Missing Value Source: NWS Daily Summary

Daily Weather History Graph

Daily Weather History Graph

Search for Another Location

Airport:

Trip Planner

Search our weather history database for the weather conditions in past years. The results will help you decide how hot, cold, wet, or windy it might be!

Date:

Astronomy

Jun. 06, 2014 Rise Set
Actual Time 5:41 AM EDT 8:30 PM EDT
Civil Twilight 5:09 AM EDT 9:02 PM EDT
Nautical Twilight 4:29 AM EDT 9:42 PM EDT
Astronomical Twilight 3:44 AM EDT 10:27 PM EDT
Moon 1:50 PM EDT (6/6) 1:28 AM EDT (6/6)
Length of Visible Light 15h 52m
Length of Day
14h 48m
First Quarter, 58% of the Moon is Illuminated
Jun 6
First Quarter
Jun 13
Full
Jun 19
Last Quarter
Jun 27
New
Jul 5
First Quarter

Hourly Weather History & Observations

Time (EDT) Temp. Dew Point Humidity Pressure Visibility Wind Dir Wind Speed Gust Speed Precip Events Conditions
12:12 AM 59.0 °F 53.6 °F 82% 29.89 in 10.0 mi Calm Calm - N/A   Clear
12:33 AM 57.2 °F 53.6 °F 88% 29.89 in 10.0 mi Calm Calm - N/A   Clear
12:54 AM 55.4 °F 53.6 °F 94% 29.89 in 10.0 mi Calm Calm - N/A   Clear
1:15 AM 55.4 °F 53.6 °F 94% 29.88 in 10.0 mi Calm Calm - N/A   Clear
1:33 AM 55.4 °F 53.6 °F 94% 29.88 in 10.0 mi Calm Calm - N/A   Clear
1:54 AM 55.4 °F 53.6 °F 94% 29.88 in 10.0 mi WSW 3.5 mph - N/A   Clear
2:15 AM 53.6 °F 51.8 °F 94% 29.89 in 7.0 mi Calm Calm - N/A   Clear
2:33 AM 53.6 °F 51.8 °F 94% 29.89 in 7.0 mi Calm Calm - N/A   Clear
2:54 AM 53.6 °F 51.8 °F 94% 29.89 in 5.0 mi Calm Calm - N/A   Clear
3:15 AM 53.6 °F 51.8 °F 94% 29.90 in 7.0 mi Calm Calm - N/A   Clear
3:33 AM 53.6 °F 51.8 °F 94% 29.90 in 5.0 mi Calm Calm - N/A   Clear
3:54 AM 53.6 °F 51.8 °F 94% 29.90 in 5.0 mi Calm Calm - N/A   Clear
4:15 AM 51.8 °F 50.0 °F 94% 29.90 in 7.0 mi Calm Calm - N/A   Clear
4:33 AM 51.8 °F 50.0 °F 94% 29.91 in 7.0 mi Calm Calm - N/A   Clear
4:54 AM 51.8 °F 50.0 °F 94% 29.91 in 7.0 mi Calm Calm - N/A   Clear
5:15 AM 51.8 °F 50.0 °F 94% 29.92 in 7.0 mi Calm Calm - N/A   Clear
5:33 AM 51.8 °F 50.0 °F 94% 29.93 in 7.0 mi Calm Calm - N/A   Clear
5:54 AM 51.8 °F 50.0 °F 94% 29.93 in 7.0 mi Calm Calm - N/A   Clear
6:15 AM 51.8 °F 50.0 °F 94% 29.94 in 10.0 mi Calm Calm - N/A   Clear
6:33 AM 53.6 °F 51.8 °F 94% 29.94 in 10.0 mi Calm Calm - N/A   Clear
6:54 AM 53.6 °F 51.8 °F 94% 29.95 in 10.0 mi Calm Calm - N/A   Clear
7:15 AM 55.4 °F 53.6 °F 94% 29.95 in 10.0 mi Calm Calm - N/A   Clear
7:33 AM 55.4 °F 53.6 °F 94% 29.96 in 10.0 mi WNW 3.5 mph - N/A   Clear
7:54 AM 59.0 °F 55.4 °F 88% 29.96 in 10.0 mi WNW 5.8 mph - N/A   Clear
8:15 AM 59.0 °F 51.8 °F 77% 29.97 in 10.0 mi NW 3.5 mph - N/A   Clear
8:33 AM 62.6 °F 51.8 °F 68% 29.97 in 10.0 mi NW 4.6 mph - N/A   Clear
8:54 AM 64.4 °F 50.0 °F 59% 29.97 in 10.0 mi NW 3.5 mph - N/A   Clear
9:15 AM 66.2 °F 48.2 °F 52% 29.97 in 10.0 mi NNW 4.6 mph - N/A   Clear
9:36 AM 68.0 °F 50.0 °F 52% 29.97 in 10.0 mi NW 6.9 mph - N/A   Clear
9:54 AM 68.0 °F 48.2 °F 49% 29.96 in 10.0 mi North 6.9 mph - N/A   Clear
10:15 AM 69.8 °F 50.0 °F 49% 29.96 in 10.0 mi NW 6.9 mph - N/A   Clear
10:36 AM 69.8 °F 50.0 °F 49% 29.96 in 10.0 mi West 10.4 mph - N/A   Clear
11:54 AM 71.6 °F 50.0 °F 46% 29.96 in 10.0 mi North 6.9 mph - N/A   Clear
12:15 PM 71.6 °F 50.0 °F 46% 29.97 in 10.0 mi West 8.1 mph - N/A   Clear
12:36 PM 71.6 °F 50.0 °F 46% 29.96 in 10.0 mi North 6.9 mph - N/A   Clear
12:54 PM 71.6 °F 50.0 °F 46% 29.96 in 10.0 mi North 8.1 mph - N/A   Clear
1:15 PM 73.4 °F 51.8 °F 47% 29.96 in 10.0 mi WNW 8.1 mph - N/A   Clear
1:36 PM 73.4 °F 51.8 °F 47% 29.96 in 10.0 mi NW 5.8 mph - N/A   Clear
1:54 PM 73.4 °F 51.8 °F 47% 29.95 in 10.0 mi NNW 8.1 mph - N/A   Clear
2:15 PM 73.4 °F 51.8 °F 47% 29.95 in 10.0 mi West 9.2 mph - N/A   Clear
2:36 PM 73.4 °F 50.0 °F 44% 29.94 in 10.0 mi North 8.1 mph - N/A   Clear
2:54 PM 73.4 °F 50.0 °F 44% 29.94 in 10.0 mi NE 5.8 mph - N/A   Clear
3:15 PM 73.4 °F 50.0 °F 44% 29.94 in 10.0 mi North 8.1 mph - N/A   Clear
3:36 PM 73.4 °F 50.0 °F 44% 29.94 in 10.0 mi NNW 4.6 mph - N/A   Clear
3:54 PM 75.2 °F 50.0 °F 41% 29.94 in 10.0 mi NNE 5.8 mph - N/A   Clear
4:15 PM 77.0 °F 51.8 °F 41% 29.94 in 10.0 mi NNE 6.9 mph - N/A   Clear
4:36 PM 75.2 °F 50.0 °F 41% 29.95 in 10.0 mi WNW 6.9 mph - N/A   Clear
4:54 PM 75.2 °F 50.0 °F 41% 29.95 in 10.0 mi West 8.1 mph - N/A   Scattered Clouds
5:15 PM 75.2 °F 50.0 °F 41% 29.95 in 10.0 mi WNW 5.8 mph - N/A   Scattered Clouds
5:36 PM 73.4 °F 50.0 °F 44% 29.95 in 10.0 mi NW 9.2 mph - N/A   Scattered Clouds
5:54 PM 73.4 °F 51.8 °F 47% 29.95 in 10.0 mi North 4.6 mph - N/A   Scattered Clouds
6:15 PM 73.4 °F 50.0 °F 44% 29.96 in 10.0 mi North 4.6 mph - N/A   Scattered Clouds
6:36 PM 73.4 °F 53.6 °F 50% 29.96 in 10.0 mi WNW 3.5 mph - N/A   Scattered Clouds
6:57 PM 71.6 °F 51.8 °F 50% 29.97 in 10.0 mi NW 3.5 mph - N/A   Mostly Cloudy
7:15 PM 71.6 °F 51.8 °F 50% 29.97 in 10.0 mi NNW 4.6 mph - N/A   Scattered Clouds
7:36 PM 69.8 °F 51.8 °F 53% 29.97 in 10.0 mi Calm Calm - N/A   Clear
7:57 PM 68.0 °F 53.6 °F 60% 29.97 in 10.0 mi Calm Calm - N/A   Clear
8:15 PM 66.2 °F 53.6 °F 64% 29.97 in 10.0 mi Calm Calm - N/A   Clear
8:36 PM 64.4 °F 55.4 °F 73% 29.98 in 10.0 mi Calm Calm - N/A   Clear
8:57 PM 62.6 °F 55.4 °F 77% 29.98 in 10.0 mi Calm Calm - N/A   Clear
9:15 PM 60.8 °F 55.4 °F 82% 29.98 in 10.0 mi Calm Calm - N/A   Clear
9:36 PM 60.8 °F 55.4 °F 82% 29.99 in 10.0 mi Calm Calm - N/A   Clear
9:57 PM 59.0 °F 55.4 °F 88% 30.00 in 10.0 mi Calm Calm - N/A   Clear
10:15 PM 59.0 °F 55.4 °F 88% 30.01 in 10.0 mi Calm Calm - N/A   Clear
10:36 PM 57.2 °F 55.4 °F 94% 30.02 in 10.0 mi Calm Calm - N/A   Clear
10:57 PM 57.2 °F 55.4 °F 94% 30.02 in 10.0 mi Calm Calm - N/A   Clear
11:15 PM 55.4 °F 53.6 °F 94% 30.01 in 10.0 mi Calm Calm - N/A   Clear
11:36 PM 55.4 °F 53.6 °F 94% 30.01 in 10.0 mi Calm Calm - N/A   Clear
11:57 PM 55.4 °F 53.6 °F 94% 30.02 in 10.0 mi Calm Calm - N/A   Clear